DG5MLB Weather Reports


Display with metric or nautical units.
time (UTC)temp
F
wind
direction
speed
MPH
gust
MPH
rain 1hr
in
rain 24hr
in
rain mn
in
humidity
%
barometer
mb
20210730103123 77 294 2.0 5.0 0.00 0.00 0.00 57 1009.6
20210730101520 77 298 1.0 7.0 0.00 0.00 0.00 58 1009.8
20210730094522 76 306 2.0 8.0 0.00 0.00 0.00 60 1010.1
20210730093040 76 217 2.0 7.0 0.00 0.00 0.00 61 1010.3
20210730091552 76 227 1.0 7.0 0.00 0.00 0.00 64 1010.3
20210730090032 75 247 1.0 7.0 0.00 0.00 0.00 67 1010.4
20210730084611 73 213 2.0 8.0 0.00 0.00 0.00 66 1010.5
20210730083100 74 250 2.0 6.0 0.00 0.00 0.00 69 1010.6
20210730081519 72 340 2.0 5.0 0.00 0.00 0.00 72 1010.6
20210730080013 71 227 2.0 5.0 0.00 0.00 0.00 73 1010.5
20210730074537 70 199 2.0 6.0 0.00 0.00 0.00 74 1010.5
20210730073030 69 196 0.0 3.0 0.00 0.00 0.00 79 1010.7
20210730071513 67 221 2.0 5.0 0.00 0.00 0.00 81 1010.8
20210730070021 66 175 2.0 5.0 0.00 0.00 0.00 83 1010.9
20210730064554 65 200 3.0 6.0 0.00 0.00 0.00 84 1011.0
20210730063010 64 159 2.0 5.0 0.00 0.00 0.00 85 1010.9
20210730061518 63 199 1.0 4.0 0.00 0.00 0.00 84 1010.9
20210730060025 62 196 0.0 3.0 0.00 0.00 0.00 87 1010.9
20210730053017 60 196 0.0 2.0 0.00 0.00 0.00 91 1011.0
20210730051638 59 198 0.0 0.0 0.00 0.00 0.00 92 1011.1
20210730050022 58 198 0.0 0.0 0.00 0.00 0.00 92 1011.0
20210730044556 58 198 0.0 0.0 0.00 0.00 0.00 92 1011.1
20210730043106 58 198 0.0 2.0 0.00 0.00 0.00 91 1011.1
20210730041620 59 261 0.0 0.0 0.00 0.00 0.00 92 1011.2
20210730040033 59 261 0.0 1.0 0.00 0.00 0.00 92 1011.1
20210730034513 59 261 0.0 1.0 0.00 0.00 0.00 92 1011.2
20210730033045 58 261 0.0 2.0 0.00 0.00 0.00 92 1011.2
20210730030053 58 215 0.0 0.0 0.00 0.00 0.00 91 1011.1
20210730024545 57 215 0.0 0.0 0.00 0.00 0.00 91 1011.0
20210730023020 57 215 0.0 2.0 0.00 0.00 0.00 91 1010.9
20210730020032 57 215 0.0 0.0 0.00 0.00 0.00 91 1010.6
20210730014510 58 215 0.0 0.0 0.00 0.00 0.00 91 1010.7
20210730013116 58 215 0.0 0.0 0.00 0.00 0.00 91 1010.7
20210730011506 58 215 0.0 0.0 0.00 0.00 0.00 91 1010.8
20210730010043 58 215 0.0 2.0 0.00 0.00 0.00 91 1010.9
20210730004507 57 215 0.0 0.0 0.00 0.00 0.00 91 1010.9
20210730003020 57 215 0.0 0.0 0.00 0.00 0.00 91 1010.9
20210730001514 58 215 0.0 0.0 0.00 0.00 0.00 91 1010.8
20210730000118 57 215 0.0 0.0 0.00 0.00 0.00 91 1010.8
20210729234525 57 215 0.0 3.0 0.00 0.00 0.00 90 1010.9
20210729233053 57 215 0.0 1.0 0.00 0.00 0.00 90 1011.0
20210729231519 58 215 0.0 0.0 0.00 0.00 0.00 90 1011.0
20210729230032 58 215 0.0 2.0 0.00 0.00 0.00 90 1011.1
20210729224514 59 215 0.0 0.0 0.00 0.00 0.00 90 1011.2
20210729223111 59 215 0.0 0.0 0.00 0.00 0.00 90 1011.3
20210729221515 59 215 0.0 2.0 0.00 0.00 0.00 90 1011.4
20210729220044 59 215 0.0 1.0 0.00 0.00 0.00 89 1011.4
20210729214518 60 215 0.0 0.0 0.00 0.00 0.00 89 1011.4
20210729213108 60 215 0.0 0.0 0.00 0.00 0.00 89 1011.5
20210729211542 61 215 0.0 2.0 0.00 0.00 0.00 88 1011.4
20210729204516 62 215 0.0 0.0 0.00 0.00 0.00 87 1011.5
20210729203045 63 215 0.0 0.0 0.00 0.00 0.00 87 1011.5
20210729201524 63 215 0.0 0.0 0.00 0.00 0.00 85 1011.5
20210729200035 64 215 0.0 0.0 0.00 0.00 0.00 84 1011.6
20210729194514 65 266 0.0 0.0 0.00 0.00 0.00 82 1011.6
20210729193149 66 266 0.0 2.0 0.00 0.00 0.00 80 1011.7
20210729191528 67 266 0.0 0.0 0.00 0.00 0.00 77 1011.5
20210729184513 72 266 0.0 2.0 0.00 0.00 0.00 69 1011.3
20210729181540 75 270 2.0 3.0 0.00 0.00 0.00 58 1011.2
20210729180014 76 260 1.0 4.0 0.00 0.00 0.00 56 1011.2
20210729174625 76 277 2.0 6.0 0.00 0.00 0.00 55 1011.2
20210729173011 76 244 3.0 7.0 0.00 0.00 0.00 53 1011.2
20210729171603 76 282 4.0 8.0 0.00 0.00 0.00 54 1011.2
20210729164550 77 257 1.0 5.0 0.00 0.00 0.00 53 1011.4
20210729163013 77 291 3.0 7.0 0.00 0.00 0.00 53 1011.4
20210729161615 77 287 4.0 9.0 0.00 0.00 0.00 52 1011.5
20210729160008 78 255 4.0 10.0 0.00 0.00 0.00 51 1011.7
20210729154533 77 207 2.0 9.0 0.00 0.00 0.00 52 1011.7
20210729153013 78 291 4.0 7.0 0.00 0.00 0.00 52 1011.8
20210729151602 78 261 0.0 8.0 0.00 0.00 0.00 54 1011.8
20210729144547 77 252 1.0 10.0 0.00 0.00 0.00 53 1012.0
20210729143036 77 264 4.0 13.0 0.00 0.00 0.00 53 1012.0
20210729141532 78 289 3.0 7.0 0.00 0.00 0.00 52 1012.2
20210729140019 78 302 4.0 10.0 0.00 0.00 0.00 51 1012.3
20210729134531 76 329 4.0 8.0 0.00 0.00 0.00 54 1012.3
20210729133016 78 308 3.0 7.0 0.00 0.00 0.00 51 1012.4
20210729131559 77 277 5.0 8.0 0.00 0.00 0.00 51 1012.5
20210729130105 77 212 2.0 11.0 0.00 0.00 0.00 52 1012.6
20210729124504 78 313 4.0 14.0 0.00 0.00 0.00 50 1012.7
20210729123019 76 236 3.0 10.0 0.00 0.00 0.00 53 1013.0
20210729121507 76 264 6.0 11.0 0.00 0.00 0.00 53 1013.1
20210729120020 75 251 3.0 11.0 0.00 0.00 0.00 54 1013.3
20210729114509 75 291 3.0 10.0 0.00 0.01 0.00 55 1013.4
20210729113104 74 231 4.0 12.0 0.00 0.01 0.00 56 1013.6
20210729111503 74 254 2.0 7.0 0.00 0.01 0.00 57 1013.6
20210729110032 73 294 1.0 6.0 0.00 0.01 0.00 61 1013.8